Location: Unspecified
(47.1121°N, 116.3927°W)
Time: 20:08:18
(UTC-07:00)

Resurs 1-4 Rocket - Visible Passes

Search period start: 23 September 2017 00:00
Search period end: 03 October 2017 00:00
Orbit: 800 x 814 km, 98.5° (Epoch: 23 September)

Date Brightness Start Highest point End Pass type
(mag) Time Alt. Az. Time Alt. Az. Time Alt. Az.
23 Sep 4.5 01:53:33 10° NE 01:55:21 16° ENE 01:55:21 16° ENE visible
23 Sep 2.7 03:32:22 10° N 03:36:26 50° NNW 03:36:26 50° NNW visible
23 Sep 4.1 05:14:48 10° NNW 05:16:28 11° NW 05:17:30 11° WNW visible
24 Sep 3.0 03:07:45 10° NNE 03:11:27 46° NNE 03:11:27 46° NNE visible
24 Sep 3.7 04:48:53 10° NNW 04:52:17 17° WNW 04:52:31 17° WNW visible
25 Sep 3.6 02:43:17 10° NNE 02:46:29 34° NE 02:46:29 34° NE visible
25 Sep 3.3 04:23:40 10° N 04:27:33 26° NW 04:27:33 26° NW visible
26 Sep 4.2 02:19:00 10° NNE 02:21:30 23° NE 02:21:30 23° NE visible
26 Sep 3.0 03:58:44 10° N 04:02:34 35° NW 04:02:34 35° NW visible
27 Sep 4.6 01:55:02 10° NE 01:56:31 15° ENE 01:56:31 15° ENE visible
27 Sep 2.9 03:33:57 10° N 03:37:35 42° NNW 03:37:35 42° NNW visible
27 Sep 4.1 05:16:32 10° NW 05:18:00 11° NW 05:18:40 11° WNW visible
28 Sep 3.2 03:09:19 10° NNE 03:12:37 39° NNE 03:12:37 39° NNE visible
28 Sep 3.8 04:50:31 10° NNW 04:53:41 17° NW 04:53:41 17° NW visible
29 Sep 3.8 02:44:50 10° NNE 02:47:38 30° NE 02:47:38 30° NE visible
29 Sep 3.4 04:25:17 10° N 04:28:43 24° NW 04:28:43 24° NW visible
30 Sep 4.3 02:20:32 10° NNE 02:22:40 21° NE 02:22:40 21° NE visible
30 Sep 3.2 04:00:19 10° N 04:03:44 32° NNW 04:03:44 32° NNW visible
01 Oct 4.7 01:56:33 10° NE 01:57:41 14° NE 01:57:41 14° NE visible
01 Oct 3.2 03:35:31 10° N 03:38:46 36° N 03:38:46 36° N visible
01 Oct 4.1 05:18:20 10° NW 05:19:33 11° NW 05:19:50 11° NW visible
02 Oct 3.5 03:10:53 10° NNE 03:13:46 33° NNE 03:13:46 33° NNE visible
02 Oct 3.8 04:52:09 10° NNW 04:54:51 16° NW 04:54:51 16° NW visible
